| time (UTC) | temp F | wind direction | speed knots | gust knots | rain 1hr in | rain 24hr in | rain mn in | humidity % | barometer mb |
| 20260502211556 | 62 | 192 | 1.7 | 5.2 | 0.00 | 0.00 | 0.00 | 79 | 1017.8 |
| 20260502210054 | 62 | 189 | 2.6 | 5.2 | 0.00 | 0.00 | 0.00 | 79 | 1017.6 |
| 20260502204533 | 62 | 184 | 2.6 | 3.5 | 0.00 | 0.00 | 0.00 | 79 | 1017.6 |
| 20260502203036 | 63 | 167 | 0.9 | 2.6 | 0.00 | 0.00 | 0.00 | 79 | 1017.4 |
| 20260502201534 | 63 | 200 | 0.9 | 3.5 | 0.00 | 0.00 | 0.00 | 80 | 1017.3 |
| 20260502200032 | 64 | 250 | 0.0 | 1.7 | 0.00 | 0.00 | 0.00 | 84 | 1016.9 |
| 20260502194533 | 65 | 306 | 0.9 | 1.7 | 0.00 | 0.00 | 0.00 | 83 | 1017.0 |
| 20260502193031 | 65 | 338 | 0.0 | 2.6 | 0.00 | 0.00 | 0.00 | 82 | 1017.0 |
| 20260502191530 | 65 | 332 | 1.7 | 4.3 | 0.00 | 0.00 | 0.00 | 82 | 1017.1 |
| 20260502190029 | 65 | 23 | 1.7 | 4.3 | 0.00 | 0.00 | 0.00 | 82 | 1016.9 |
| 20260502184528 | 66 | 343 | 3.5 | 5.2 | 0.00 | 0.00 | 0.00 | 81 | 1017.0 |
| 20260502183028 | 65 | 320 | 0.9 | 2.6 | 0.00 | 0.00 | 0.00 | 82 | 1017.2 |
| 20260502181519 | 65 | 5 | 2.6 | 5.2 | 0.00 | 0.00 | 0.00 | 81 | 1017.4 |
| 20260502163015 | 67 | 331 | 2.6 | 7.0 | 0.00 | 0.00 | 0.00 | 78 | 1017.1 |
| 20260502161506 | 67 | 28 | 2.6 | 7.8 | 0.00 | 0.00 | 0.00 | 78 | 1017.2 |
| 20260502151607 | 66 | 250 | 3.5 | 8.7 | 0.00 | 0.00 | 0.00 | 79 | 1017.7 |
| 20260502140105 | 66 | 27 | 5.2 | 8.7 | 0.00 | 0.00 | 0.00 | 82 | 1018.3 |
| 20260502123050 | 67 | 308 | 3.5 | 8.7 | 0.00 | 0.00 | 0.00 | 77 | 1018.5 |
| 20260502121550 | 68 | 335 | 4.3 | 8.7 | 0.00 | 0.00 | 0.00 | 76 | 1018.4 |
| 20260502114553 | 68 | 292 | 2.6 | 8.7 | 0.00 | 0.00 | 0.00 | 78 | 1018.5 |
| 20260502113051 | 67 | 322 | 3.5 | 8.7 | 0.00 | 0.00 | 0.00 | 78 | 1018.6 |
| 20260502111547 | 67 | 10 | 2.6 | 7.8 | 0.00 | 0.00 | 0.00 | 78 | 1018.5 |
| 20260502110046 | 67 | 317 | 2.6 | 8.7 | 0.00 | 0.00 | 0.00 | 78 | 1018.5 |
| 20260502104545 | 67 | 10 | 3.5 | 8.7 | 0.00 | 0.00 | 0.00 | 76 | 1018.6 |
| 20260502103045 | 68 | 188 | 0.9 | 7.0 | 0.00 | 0.00 | 0.00 | 75 | 1018.6 |
| 20260502101549 | 67 | 353 | 1.7 | 6.1 | 0.00 | 0.00 | 0.00 | 76 | 1018.7 |
| 20260502071529 | 61 | 194 | 3.5 | 7.0 | 0.00 | 0.00 | 0.00 | 81 | 1017.9 |
| 20260502070028 | 61 | 199 | 3.5 | 7.0 | 0.00 | 0.00 | 0.00 | 81 | 1017.8 |
| 20260502064540 | 61 | 167 | 1.7 | 4.3 | 0.00 | 0.00 | 0.00 | 81 | 1018.1 |
| 20260502063033 | 61 | 201 | 2.6 | 6.1 | 0.00 | 0.00 | 0.00 | 81 | 1017.8 |
| 20260502061524 | 61 | 165 | 5.2 | 7.0 | 0.00 | 0.00 | 0.00 | 81 | 1017.8 |
| 20260502060022 | 61 | 180 | 1.7 | 4.3 | 0.00 | 0.00 | 0.00 | 82 | 1017.6 |
| 20260502054519 | 62 | 192 | 1.7 | 3.5 | 0.00 | 0.00 | 0.00 | 81 | 1017.6 |
| 20260502053018 | 62 | 196 | 0.0 | 2.6 | 0.00 | 0.00 | 0.00 | 81 | 1017.7 |
| 20260502051519 | 62 | 169 | 0.9 | 2.6 | 0.00 | 0.00 | 0.00 | 81 | 1017.7 |
| 20260502050023 | 62 | 204 | 0.9 | 3.5 | 0.00 | 0.00 | 0.00 | 81 | 1017.7 |
| 20260502044513 | 62 | 188 | 1.7 | 2.6 | 0.00 | 0.00 | 0.00 | 79 | 1017.8 |
| 20260502043013 | 62 | 179 | 0.9 | 2.6 | 0.00 | 0.00 | 0.00 | 79 | 1017.8 |
| 20260502041513 | 63 | 201 | 0.9 | 1.7 | 0.00 | 0.00 | 0.00 | 79 | 1017.9 |
| 20260502040024 | 63 | 201 | 0.9 | 1.7 | 0.00 | 0.00 | 0.00 | 79 | 1017.8 |
| 20260502034511 | 63 | 185 | 0.0 | 0.9 | 0.00 | 0.00 | 0.00 | 77 | 1017.7 |
| 20260502033010 | 63 | 176 | 1.7 | 6.1 | 0.00 | 0.00 | 0.00 | 77 | 1017.8 |
| 20260502031510 | 63 | 169 | 2.6 | 5.2 | 0.00 | 0.00 | 0.00 | 77 | 1017.7 |
| 20260502030009 | 65 | 268 | 0.0 | 0.0 | 0.00 | 0.00 | 0.00 | 81 | 1017.8 |
| 20260502024507 | 65 | 268 | 0.0 | 0.0 | 0.00 | 0.00 | 0.00 | 81 | 1017.9 |
| 20260502023001 | 65 | 268 | 0.0 | 0.0 | 0.00 | 0.00 | 0.00 | 81 | 1017.7 |
| 20260502021559 | 65 | 268 | 0.9 | 2.6 | 0.00 | 0.00 | 0.00 | 81 | 1018.0 |
| 20260502020112 | 65 | 268 | 1.7 | 3.5 | 0.00 | 0.00 | 0.00 | 82 | 1018.3 |
| 20260502014659 | 66 | 269 | 0.0 | 3.5 | 0.00 | 0.00 | 0.00 | 83 | 1018.4 |
| 20260502013105 | 66 | 269 | 1.7 | 2.6 | 0.00 | 0.00 | 0.00 | 82 | 1018.3 |
| 20260502011557 | 66 | 269 | 0.0 | 0.0 | 0.00 | 0.00 | 0.00 | 82 | 1018.5 |
| 20260502010051 | 66 | 269 | 0.0 | 0.0 | 0.00 | 0.00 | 0.00 | 82 | 1018.8 |
| 20260502004556 | 66 | 269 | 0.0 | 0.0 | 0.00 | 0.00 | 0.00 | 82 | 1019.1 |
| 20260502003054 | 66 | 269 | 0.0 | 0.0 | 0.00 | 0.00 | 0.00 | 81 | 1019.1 |
| 20260502001623 | 66 | 269 | 0.0 | 0.0 | 0.00 | 0.00 | 0.00 | 81 | 1019.3 |
| 20260502000045 | 66 | 269 | 0.9 | 3.5 | 0.00 | 0.00 | 0.00 | 81 | 1019.6 |
| 20260501234543 | 66 | 272 | 1.7 | 2.6 | 0.00 | 0.00 | 0.00 | 81 | 1019.6 |
| 20260501233037 | 66 | 24 | 1.7 | 2.6 | 0.00 | 0.00 | 0.00 | 80 | 1019.8 |
| 20260501231637 | 66 | 24 | 0.0 | 0.0 | 0.00 | 0.00 | 0.00 | 80 | 1019.7 |
| 20260501230016 | 61 | 193 | 1.7 | 2.6 | 0.00 | 0.00 | 0.00 | 82 | 1019.6 |
| 20260501224511 | 62 | 187 | 0.9 | 4.3 | 0.00 | 0.00 | 0.00 | 82 | 1019.4 |
| 20260501223016 | 62 | 185 | 1.7 | 4.3 | 0.00 | 0.00 | 0.00 | 82 | 1019.3 |
| 20260501221510 | 62 | 177 | 1.7 | 3.5 | 0.00 | 0.00 | 0.00 | 84 | 1019.2 |
| 20260501220008 | 62 | 173 | 2.6 | 3.5 | 0.00 | 0.00 | 0.00 | 82 | 1019.3 |
| 20260501214508 | 63 | 181 | 0.0 | 1.7 | 0.00 | 0.00 | 0.00 | 82 | 1019.1 |
| 20260501213006 | 63 | 167 | 0.0 | 3.5 | 0.00 | 0.00 | 0.00 | 82 | 1018.9 |